Location: Béaulencourt
(50.0796°N, 2.8795°E)
Time: 23:56:32
(UTC+00:00)

Cosmos 2263 - Pass Details

Date: 20 January 2026
Orbit: 830 x 864 km, 70.9° (Epoch: 18 February)

Event Time Altitude Azimuth Distance (km) Brightness Sun altitude
Rises 06:54:29 0° 208° (SSW) 3,432 7.3 -6.9°
Reaches altitude 10° 06:56:56 10° 208° (SSW) 2,498 6.6 -6.5°
Maximum altitude 07:02:42 88° 297° (WNW) 868 4.3 -5.7°
Drops below altitude 10° 07:08:29 10° 29° (NNE) 2,500 6.7 -4.9°
Sets 07:10:57 0° 30° (NNE) 3,436 7.4 -4.5°
